EW6466 Weather Reports


Display with metric or nautical units.
time (UTC)temp
F
wind
direction
speed
MPH
gust
MPH
rain 1hr
in
rain 24hr
in
rain mn
in
humidity
%
barometer
mb
20260506204506 77 28 3.0 8.0 0.00 0.02 0.02 75 1008.1
20260506203003 78 34 8.0 12.0 0.00 0.02 0.02 75 1008.0
20260506201506 79 59 7.0 12.0 0.00 0.02 0.02 72 1008.2
20260506200002 79 47 3.0 6.0 0.00 0.02 0.02 73 1008.4
20260506194502 79 37 4.0 9.0 0.00 0.02 0.02 74 1008.5
20260506193058 77 30 2.0 9.0 0.00 0.02 0.02 79 1008.6
20260506191555 76 51 1.0 10.0 0.00 0.02 0.02 82 1008.8
20260506190052 74 27 3.0 9.0 0.00 0.02 0.02 82 1009.0
20260506184555 74 40 3.0 6.0 0.00 0.02 0.02 83 1009.2
20260506183050 73 41 0.0 8.0 0.00 0.02 0.02 84 1009.3
20260506181551 73 26 2.0 8.0 0.00 0.02 0.02 84 1009.1
20260506180050 71 32 3.0 9.0 0.00 0.02 0.02 85 1009.4
20260506174549 70 20 3.0 6.0 0.00 0.02 0.02 86 1009.6
20260506173107 70 20 1.0 6.0 0.00 0.02 0.02 86 1009.7
20260506171555 69 16 3.0 7.0 0.00 0.02 0.02 87 1009.4
20260506170050 69 54 2.0 9.0 0.00 0.02 0.02 87 1009.4
20260506164546 67 35 2.0 9.0 0.00 0.02 0.02 87 1009.4
20260506163059 67 38 3.0 8.0 0.01 0.02 0.02 87 1009.2
20260506161544 67 61 2.0 9.0 0.01 0.02 0.02 87 1009.1
20260506160042 67 48 5.0 10.0 0.02 0.02 0.02 87 1008.9
20260506154538 69 11 6.0 17.0 0.02 0.02 0.02 86 1008.7
20260506153038 72 196 0.0 0.0 0.01 0.01 0.01 87 1008.4
20260506151532 72 196 1.0 3.0 0.01 0.01 0.01 87 1008.3
20260506150032 72 196 0.0 0.0 0.00 0.00 0.00 87 1008.2
20260506144531 72 196 0.0 0.0 0.00 0.00 0.00 87 1008.2
20260506143030 72 196 0.0 0.0 0.00 0.00 0.00 87 1008.2
20260506141528 71 196 0.0 2.0 0.00 0.00 0.00 87 1008.1
20260506140025 71 196 1.0 5.0 0.00 0.00 0.00 87 1007.7
20260506134523 71 191 0.0 6.0 0.00 0.00 0.00 87 1007.3
20260506133021 71 150 1.0 5.0 0.00 0.00 0.00 87 1006.7
20260506131519 71 149 1.0 3.0 0.00 0.00 0.00 87 1006.4
20260506130017 71 149 1.0 3.0 0.00 0.00 0.00 87 1006.5
20260506124517 71 146 0.0 9.0 0.00 0.00 0.00 87 1006.3
20260506123015 71 171 4.0 9.0 0.00 0.00 0.00 87 1006.2
20260506121514 71 194 2.0 7.0 0.00 0.00 0.00 87 1006.1
20260506120013 71 59 3.0 12.0 0.00 0.00 0.00 87 1006.0
20260506114513 72 38 0.0 4.0 0.00 0.00 0.00 87 1006.0
20260506113015 72 259 0.0 5.0 0.00 0.00 0.00 87 1006.1
20260506111511 72 173 2.0 10.0 0.00 0.00 0.00 87 1006.2
20260506110010 72 159 4.0 11.0 0.00 0.00 0.00 87 1006.3
20260506104510 72 146 1.0 9.0 0.00 0.00 0.00 87 1006.3
20260506103008 72 163 3.0 9.0 0.00 0.00 0.00 87 1006.2
20260506101507 72 243 3.0 10.0 0.00 0.00 0.00 87 1006.2
20260506100007 72 194 3.0 8.0 0.00 0.00 0.00 87 1006.0
20260506094506 72 178 4.0 10.0 0.00 0.00 0.00 87 1006.0
20260506093011 72 5 3.0 8.0 0.00 0.00 0.00 87 1006.1
20260506091503 72 240 6.0 13.0 0.00 0.00 0.00 87 1005.8
20260506090002 72 202 5.0 13.0 0.00 0.00 0.00 86 1006.0
20260506084603 72 182 2.0 9.0 0.00 0.00 0.00 86 1005.9
20260506083058 72 216 1.0 6.0 0.00 0.00 0.00 86 1005.6
20260506081556 73 51 3.0 8.0 0.00 0.00 0.00 86 1005.8
20260506080107 73 226 3.0 12.0 0.00 0.00 0.00 85 1005.9
20260506073102 74 65 3.0 10.0 0.00 0.00 0.00 85 1005.9
20260506071548 74 236 5.0 13.0 0.00 0.00 0.00 85 1006.2
20260506061556 75 52 2.0 9.0 0.00 0.00 0.00 84 1006.5
20260506044537 75 28 1.0 8.0 0.00 0.00 0.00 82 1006.4
20260506043035 76 18 1.0 10.0 0.00 0.00 0.00 81 1006.3
20260506041535 76 49 0.0 6.0 0.00 0.00 0.00 81 1006.2
20260506040034 75 49 4.0 9.0 0.00 0.00 0.00 81 1005.8
20260506034534 75 329 2.0 6.0 0.00 0.00 0.00 82 1005.7
20260506033034 74 296 1.0 4.0 0.00 0.00 0.00 82 1005.5
20260506031533 74 296 3.0 4.0 0.00 0.00 0.00 82 1005.5
20260506030033 75 296 0.0 5.0 0.00 0.00 0.00 81 1005.2
20260506024531 75 262 0.0 3.0 0.00 0.00 0.00 80 1005.0
20260506023030 75 262 1.0 5.0 0.00 0.00 0.00 79 1004.9
20260506021530 77 179 1.0 4.0 0.00 0.00 0.00 77 1004.5
20260506020058 78 178 0.0 3.0 0.00 0.00 0.00 75 1004.4
20260506014528 79 178 1.0 4.0 0.00 0.00 0.00 73 1004.3
20260506013027 80 178 1.0 3.0 0.00 0.00 0.00 71 1004.1
20260506011528 81 178 0.0 2.0 0.00 0.00 0.00 68 1003.9
20260506010030 82 178 1.0 3.0 0.00 0.00 0.00 66 1003.7
20260506004526 82 178 1.0 6.0 0.00 0.00 0.00 65 1003.8
20260506003026 83 175 2.0 4.0 0.00 0.00 0.00 63 1003.8
20260506001524 83 175 1.0 6.0 0.00 0.00 0.00 63 1003.9
20260506000041 83 173 2.0 5.0 0.00 0.00 0.00 63 1003.9
20260505234523 84 180 2.0 5.0 0.00 0.00 0.00 61 1003.9
20260505233021 84 140 1.0 8.0 0.00 0.00 0.00 60 1003.8
20260505231525 85 184 3.0 7.0 0.00 0.00 0.00 61 1003.8
20260505230031 85 172 4.0 7.0 0.00 0.00 0.00 59 1003.7
20260505224518 85 184 4.0 8.0 0.00 0.00 0.00 59 1003.8
20260505223016 85 198 1.0 7.0 0.00 0.00 0.00 59 1003.9
20260505221515 85 161 3.0 10.0 0.00 0.00 0.00 59 1004.0
20260505220014 85 160 5.0 10.0 0.00 0.00 0.00 59 1004.0
20260505214512 86 184 3.0 7.0 0.00 0.00 0.00 58 1004.2
20260505213011 87 163 3.0 9.0 0.00 0.00 0.00 55 1004.3
20260505211511 87 188 5.0 9.0 0.00 0.00 0.00 55 1004.5
20260505210006 86 202 3.0 9.0 0.00 0.00 0.00 56 1004.6